Back to catalog

STARLINK-35689

AliveCommunicationsVLEO
NORAD 66494·PAYLOAD·🇺🇸 United States

Launched Nov 15, 2025 from Cape Canaveral Space Force Station

Loading…

Next Passes (next 24 hours)

TLE

FreshSource: CelesTrak SupGP

Epoch: Sep 15, 2026, 03:32 UTC

1 66494C 25263K   26258.14770833  .00036582  00000+0  13247-2 0  2583
2 66494  43.0013   1.1227 0001675 258.4297 318.0179 15.27567759    15

Track STARLINK-35689 in real time with AllMySat

Download on the App Store